Tracking 35334 objects as of 12-Sep-2026
HD Live streaming from Space Station
objects crossing your sky now

CZ-4C DEB

Track CZ-4C DEB now!
10-day predictions


NORAD ID: 43629
Int'l Code: 2013-065G
Launch date: November 20, 2013
Source: People's Republic of China (PRC)
Launch site: Taiyaun Space Center, China (TSC)

Note: This is SATELLITE DEBRIS
Your satellite tracking list
Your tracking list is empty




NASA's NSSDC Master Catalog

Two Line Element Set (TLE):
1 43629U 13065F   26254.85528426  .00006377  00000-0  52529-2 0  9996
2 43629 100.8727 100.0740 0077978 256.7954 102.4489 13.88176749401769
Source of the keplerian elements: AFSPC